Location: *
(58.4167°N, 22.5000°E)
Time: 14:17:02
(UTC+00:00)

Daily predictions for brighter satellites

Satellite Brightness Start Highest point End
(mag) Time Altitude Azimuth Time Altitude Azimuth Time Altitude Azimuth
Cosmos 2154 Rocket 4.1 17:00:13 10° NNW 17:06:28 87° ENE 17:12:43 10° SSE
SL-8 Rocket 4.2 17:06:14 10° N 17:12:19 52° ENE 17:18:19 10° SE
Meteor 1-24 Rocket 4.3 17:07:57 10° N 17:13:23 41° ENE 17:18:58 10° SE
NOSS 3-3 (A) 4.1 17:07:29 10° SW 17:13:36 69° SE 17:20:35 10° ENE
NOSS 3-3 (C) 4.1 17:07:36 10° SW 17:13:42 68° SE 17:20:41 10° ENE
Cosmos 1980 4.2 17:09:13 10° NW 17:14:50 64° WSW 17:20:25 10° SSE
Meteor 2-15 4.5 17:09:07 10° S 17:15:16 78° E 17:21:27 10° NNE
Meteor 2-15 Rocket 4.5 17:10:24 10° S 17:16:30 68° E 17:22:38 10° NNE
Cosmos 1441 Rocket 3.2 17:13:25 10° S 17:17:09 60° E 17:20:52 10° NNE
Okean 2 Rocket 4.1 17:12:45 10° SSW 17:17:10 54° WNW 17:21:39 10° N
BREEZE M DEB (TANK) 3.7 17:16:13 10° SSW 17:17:44 15° SSE 17:19:54 10° ESE
EO 1 Delta rocket 4.2 17:12:26 10° SSE 17:18:13 62° ENE 17:23:03 10° N
Ariane Rocket 3.3 17:16:17 10° SSE 17:21:21 75° WSW 17:26:29 10° NNW
GP-B 3.1 17:17:09 10° N 17:21:38 88° E 17:26:05 10° S
USA 234 3.4 17:16:50 10° ENE 17:23:21 62° SSE 17:29:52 10° WSW
Cosmos 389 Rocket 2.4 17:20:35 10° NNW 17:24:03 88° WSW 17:27:29 10° SSE
Cosmos 1975 4.1 17:21:01 10° SW 17:24:53 47° WNW 17:28:49 10° N
Cosmos 407 Rocket 4.0 17:20:45 10° NW 17:25:51 64° WSW 17:30:55 10° SSE
Meteor 1-12 Rocket 4.2 17:21:24 10° S 17:27:05 83° ESE 17:32:47 10° NNE
Cosmos 1892 Rocket 3.6 17:23:44 10° N 17:28:14 72° ENE 17:32:38 10° SSE
SJ-11-01 4.3 17:24:15 10° SSE 17:28:59 73° ENE 17:33:44 10° NNW
HJ-1C 3.7 17:26:01 10° S 17:29:26 73° W 17:32:50 10° NNW
Resurs 01 Rocket 2.5 17:25:33 10° ESE 17:29:29 32° ENE 17:33:26 10° N
YAOGAN 1 4.4 17:25:42 10° SSW 17:29:42 36° W 17:33:44 10° NNW
CZ-4C R/B 3.1 17:25:35 10° W 17:31:27 57° N 17:38:30 10° ENE
FREGAT/IRIS 2.4 17:28:43 10° SSE 17:31:32 86° ENE 17:34:23 10° NNW
Cosmos 1603 4.3 17:27:33 10° NW 17:32:59 44° NE 17:37:59 12° ESE
ASTEX 1 3.5 17:28:18 10° NNE 17:33:08 55° E 17:37:56 10° S
SAR-Lupe-2 4.2 17:30:26 10° NNE 17:33:46 34° E 17:37:04 10° SSE
Cosmos 2219 Rocket 4.4 17:30:26 10° NW 17:35:02 27° WSW 17:39:38 10° SSW
Cosmos 2056 Rocket 4.1 17:30:56 10° S 17:35:52 37° ESE 17:40:46 10° NE
SL-16 R/B 2.2 17:32:00 10° NW 17:37:44 87° ENE 17:43:26 10° SE
SJ 16-02 4.2 17:36:25 10° NW 17:37:58 11° NNW 17:39:29 10° N
CZ-2C R/B 4.5 17:36:27 10° ENE 17:38:23 12° ENE 17:39:34 11° E
Cosmos 1707 3.6 17:35:48 10° NNW 17:39:39 54° W 17:43:29 10° S
Cosmos 1544 3.3 17:38:23 10° SSW 17:42:00 75° WNW 17:45:39 10° N
Cosmos 1140 Rocket 3.8 17:36:52 10° NNW 17:42:02 68° WSW 17:47:09 10° SSE
KORONAS-FOTON 4.1 17:40:03 10° N 17:43:45 46° ENE 17:47:24 10° SE
Cosmos 1741 Rocket 4.2 17:40:41 10° NNW 17:45:59 59° NE 17:50:48 13° SE
COSMO-SKYMED 1 3.8 17:42:21 10° N 17:46:32 46° WNW 17:50:41 10° SW
Cosmos 1624 Rocket 4.3 17:42:09 10° S 17:47:01 43° ESE 17:51:56 10° NE
Meteor 2-5 Rocket 3.8 17:42:04 10° NNW 17:47:55 79° ENE 17:53:51 10° SSE
RESURS DK-1 2.4 17:44:22 10° NW 17:48:31 68° NE 17:51:53 15° SE
Cosmos 1954 Rocket 4.2 17:43:58 10° NNW 17:49:13 75° WSW 17:54:24 10° SSE
NOSS 2-1 (E) 4.5 17:45:39 10° W 17:49:32 46° N 17:54:36 10° ENE
Nadezhda 1 Rocket 4.1 17:43:33 10° SSW 17:49:38 82° WNW 17:55:49 10° NNE
Okean 1-7 Rocket 3.8 17:45:38 10° NNW 17:50:06 76° W 17:54:34 10° S
ERBS 4.1 17:48:49 10° W 17:51:37 24° SW 17:54:26 10° SSE
Cosmos 1626 3.4 17:49:33 10° N 17:52:40 24° ENE 17:54:22 18° ESE
SL-08 RB Rocket 4.0 17:48:54 10° SE 17:53:26 53° ENE 17:58:00 10° N
ISS -1.7 17:52:22 10° S 17:53:55 13° SSE 17:54:00 13° SSE
Cosmos 2084 Rocket 4.5 17:51:50 10° S 17:55:34 27° SE 17:59:03 11° ENE
Spot 2 Rocket 4.1 17:54:26 15° ESE 17:58:06 38° ENE 18:02:45 10° N
Cosmos 2082 4.4 17:54:05 10° SSE 17:58:59 30° ESE 18:03:52 10° NE
Meteor 1-4 Rocket 3.6 18:00:46 10° NNW 18:04:12 46° W 18:07:33 10° S
ARGOS 3.1 17:58:54 10° SSE 18:04:17 81° ENE 18:09:44 10° NNW
Cosmos 1733 4.3 18:04:14 21° ESE 18:05:13 24° E 18:08:19 10° NE
Cosmos 2082 Rocket 4.1 18:00:56 10° WNW 18:05:33 24° N 18:10:09 10° NE
Terra 3.7 18:03:26 13° ENE 18:05:40 17° NE 18:08:40 10° N
USA 186 2.7 18:06:59 10° S 18:10:21 52° W 18:13:42 10° NNW
SL-14 R/B 3.7 18:07:39 10° N 18:11:30 43° ENE 18:13:31 23° SE
Cosmos 2227 Rocket 2.4 18:08:01 10° S 18:13:27 49° ESE 18:18:55 10° NE
Cosmos 1544 Rocket 3.7 18:09:15 10° S 18:13:36 54° E 18:17:58 10° NNE
Cosmos 1455 Rocket 3.1 18:09:20 10° S 18:13:44 63° E 18:18:11 10° NNE
SJ-6B 3.5 18:12:41 10° S 18:16:44 57° WSW 18:20:44 10° NNW
SPOT 3 Rocket 3.9 18:11:45 10° S 18:16:52 65° WSW 18:22:02 10° NNW
Timation 2 Rocket 4.4 18:10:50 10° SW 18:17:15 65° NW 18:23:24 10° NE
MetOp-A 4.1 18:13:53 13° SSE 18:18:45 75° ENE 18:24:07 10° NNW
Cosmos 1371 Rocket 4.0 18:13:47 10° SSW 18:19:07 76° ESE 18:24:31 10° NNE
Cosmos 2219 3.2 18:13:28 10° SSW 18:19:13 76° ESE 18:24:59 10° NE
CZ-2C R/B 3.2 18:14:50 13° SSE 18:19:42 74° ENE 18:25:24 10° NNW
Cosmos 2297 Rocket 2.2 18:18:03 10° SSW 18:23:36 58° ESE 18:29:09 10° NE
Cosmos 1766 3.3 18:19:54 10° S 18:23:44 54° E 18:27:35 10° NNE
Cosmos 1626 Rocket 3.5 18:22:01 10° NNW 18:26:23 87° WSW 18:30:02 14° S
Cosmos 1452 Rocket 3.9 18:25:08 10° S 18:29:58 38° ESE 18:34:49 10° NE
Cosmos 1825 Rocket 3.9 18:29:22 10° N 18:33:33 44° ENE 18:35:03 32° ESE
Cosmos 1943 3.3 18:31:55 10° NW 18:37:39 69° NE 18:40:42 28° SE
Lacrosse 5 rocket 2.3 18:34:52 10° SSW 18:37:13 25° S 18:37:13 25° S
USA 245 4.4 18:36:42 26° SE 18:39:55 53° ENE 18:44:57 10° N
Cosmos 405 Rocket 3.1 18:36:17 10° SSW 18:39:57 61° WNW 18:43:43 10° N
Cosmos 1461 3.5 18:37:43 10° WSW 18:41:37 51° NNW 18:45:31 10° NE
Cosmos 2181 Rocket 4.1 18:36:23 10° SSW 18:42:41 82° WNW 18:49:09 10° NNE
Cosmos 1437 Rocket 4.1 18:40:58 10° NNW 18:44:31 37° W 18:48:01 10° SSW
Cosmos 1758 Rocket 3.6 18:40:26 10° N 18:44:43 57° ENE 18:46:11 37° SE
Cosmos 1674 3.8 18:41:20 10° NNW 18:44:53 42° W 18:48:20 10° SSW
H-2A R/B 2.7 18:41:15 10° S 18:46:07 52° W 18:51:09 10° NNW
Cosmos 1184 Rocket 4.0 18:48:39 29° NE 18:48:39 29° NE 18:50:42 10° NNE
Cosmos 1602 Rocket 3.8 18:44:02 10° NNW 18:48:23 69° W 18:51:23 19° S
ADEOS Rocket 3.4 18:41:49 10° NNE 18:49:07 74° ESE 18:56:52 10° S
Nadezhda 3 Rocket 4.2 18:45:33 22° SSE 18:49:22 49° E 18:55:20 10° NNE
Resurs 1-3 4.2 18:47:35 14° S 18:51:17 54° WSW 18:55:38 10° NNW
NOSS 2-1 (C) 4.4 18:49:36 10° WNW 18:53:43 50° NNE 18:56:45 23° ENE
Cosmos 1605 Rocket 4.5 18:48:13 10° N 18:54:22 45° ENE 18:56:54 31° ESE
Meteor 1-21 Rocket 4.3 18:50:07 10° NNW 18:56:03 72° ENE 18:59:04 30° SSE
NOSS 2-1 (D) 4.4 18:52:48 10° WNW 18:56:56 51° NNE 18:59:51 24° ENE
Cosmos 1821 Rocket 3.9 18:51:00 10° NNW 18:57:12 82° ENE 19:01:00 25° SSE
Cosmos 1470 3.3 19:01:11 41° ENE 19:01:11 41° ENE 19:04:33 10° NNE
CZ-2C R/B 4.4 18:57:01 10° N 19:01:24 54° WNW 19:05:43 10° SW
Cosmos 2239 Rocket 4.4 18:58:05 10° NNW 19:04:25 84° ENE 19:08:00 27° SSE
Resurs 01 Rocket 2.3 19:02:49 19° S 19:05:50 52° W 19:10:13 10° NNW
USA 234 3.2 19:02:35 25° E 19:06:45 81° S 19:13:21 10° W
Cosmos 1271 Rocket 3.0 19:04:00 10° N 19:07:37 46° ENE 19:07:37 46° ENE
Landsat 7 3.9 19:09:44 46° ESE 19:10:56 63° ENE 19:15:40 10° NNW
Cosmos 1805 3.8 19:07:39 10° SSW 19:11:30 58° WNW 19:15:23 10° N
Cosmos 1758 3.3 19:15:15 60° E 19:15:15 60° E 19:19:07 10° NNE
CZ-4B DEB 4.3 19:15:12 85° NNE 19:15:12 85° NNE 19:18:36 10° NNW
Cosmos 1603 4.0 19:11:48 10° NW 19:17:25 64° WSW 19:19:52 34° S
Cosmos 1328 4.4 19:13:49 10° N 19:17:34 43° ENE 19:17:34 43° ENE
Cosmos 2056 Rocket 4.2 19:12:29 10° SW 19:17:51 58° NW 19:23:11 10° NNE
CZ-2C R/B 2.9 19:14:36 10° NNE 19:20:02 50° E 19:21:05 44° SE
Cosmos 1420 Rocket 3.9 19:15:15 10° SSW 19:20:35 89° ESE 19:25:58 10° NNE
CZ-4C R/B 2.9 19:14:26 10° WNW 19:20:49 68° NNE 19:24:41 30° E
SL-16 R/B 4.0 19:16:41 10° NW 19:21:16 26° WSW 19:25:51 10° SSW
ERS-1 Rocket 2.9 19:20:52 49° SE 19:22:10 73° ENE 19:27:12 10° NNW
RESURS DK-1 4.2 19:22:50 10° WNW 19:26:15 25° WSW 19:27:47 20° SW
SPOT 5 3.0 19:26:13 53° ESE 19:27:10 65° ENE 19:32:17 10° NNW
Cosmos 1626 3.0 19:24:35 10° NNW 19:28:10 46° W 19:28:56 40° SW
Cosmos 1953 3.1 19:30:16 41° NE 19:30:16 41° NE 19:33:13 10° NNE
Cosmos 2084 Rocket 3.4 19:30:12 10° WSW 19:34:41 87° SSE 19:35:37 56° ENE
MOS 1 Rocket 4.4 19:31:56 10° NNE 19:35:44 32° ENE 19:35:44 32° ENE
Spot 2 Rocket 4.2 19:34:39 28° SSW 19:37:01 50° W 19:41:57 10° NNW
Cosmos 1174 3.8 19:33:12 10° NW 19:37:53 82° NE 19:37:53 82° NE
Cosmos 1486 Rocket 3.9 19:33:34 10° NNW 19:38:52 84° ENE 19:39:49 61° SE
Cosmos 1733 4.1 19:39:10 30° SW 19:40:41 47° WNW 19:44:26 10° N
NOSS 2-1 (E) 4.2 19:36:16 10° WNW 19:40:43 62° NNE 19:42:22 42° E
Terra 1.8 19:42:20 61° E 19:42:38 63° ENE 19:47:22 10° NNW
Cosmos 2082 3.8 19:36:54 10° SW 19:42:40 78° NW 19:48:25 10° NE
Cosmos 1703 3.7 19:40:38 10° N 19:44:01 55° NNE 19:44:01 55° NNE
SPOT 1/Viking Rocket 3.5 19:44:24 54° S 19:45:36 79° WSW 19:50:48 10° NNW
Cosmos 1726 Rocket 4.0 19:46:45 50° NE 19:46:45 50° NE 19:50:21 10° NNE
ARGOS Delta rocket 4.2 19:48:31 51° E 19:48:47 52° ENE 19:53:37 10° N
Cosmos 1242 Rocket 3.6 19:45:36 10° N 19:48:02 39° N 19:48:02 39° N
Cosmos 2228 3.4 19:50:42 54° NE 19:50:42 54° NE 19:54:19 10° NNE
IGS 5A 3.5 19:50:25 74° WSW 19:50:25 74° WSW 19:54:38 10° NNW
Cosmos 2082 Rocket 3.8 19:46:31 10° NW 19:51:25 28° NNE 19:54:33 18° ENE
DMSP B5D2-2 4.2 19:47:59 10° NNE 19:53:18 75° WNW 19:56:01 30° SSW
Cosmos 1934 Rocket 4.2 19:48:26 10° NNW 19:54:31 67° W 19:56:55 38° SSW
CARTOSAT-1 3.5 19:56:06 83° WNW 19:56:06 83° WNW 20:00:20 10° NNW
Cosmos 1953 Rocket 4.1 19:52:37 10° NNW 19:57:02 55° W 19:57:35 51° SW
Cosmos 2227 Rocket 3.0 19:52:01 10° WSW 19:57:34 52° NW 20:03:09 10° NE
Cosmos 1726 4.3 20:01:45 18° NNE 20:01:45 18° NNE 20:02:54 10° NNE
Cosmos 968 Rocket 3.4 19:54:29 10° NNW 19:59:45 75° ENE 20:00:08 71° E
Cosmos 1802 Rocket 4.5 19:54:48 10° N 20:00:52 46° ENE 20:01:48 43° E
Cosmos 1503 Rocket 3.8 19:59:24 10° NNW 20:04:42 80° ENE 20:04:58 77° E
Cosmos 2297 Rocket 3.2 20:02:25 10° WSW 20:07:52 46° NW 20:13:21 10° NE
Thor Agena Rocket 4.1 20:03:44 10° NNE 20:08:00 45° ENE 20:08:00 45° ENE
Cosmos 2016 Rocket 4.4 20:04:41 10° N 20:10:32 44° ENE 20:11:07 43° E
Cosmos 1452 Rocket 4.2 20:06:50 10° SW 20:12:00 54° NW 20:17:11 10° NNE
Cosmos 2263 Rocket 2.9 20:18:29 39° ENE 20:18:29 39° ENE 20:22:18 10° NE
Cosmos 2061 Rocket 4.3 20:11:19 10° N 20:17:36 52° ENE 20:18:17 49° E
Cosmos 1461 4.4 20:17:46 10° WNW 20:21:22 31° N 20:22:03 29° NNE
Cosmos 1943 4.2 20:16:19 10° NW 20:21:25 35° WSW 20:22:30 32° SW
COSMOS 2406 3.6 20:17:46 10° NW 20:23:29 54° NE 20:24:13 51° ENE
Cosmos 1833 Rocket 3.7 20:19:58 10° NW 20:25:13 38° NNE 20:26:32 33° ENE
Spot 4 4.4 20:27:11 51° NE 20:27:11 51° NE 20:31:27 10° N
Cosmos 1727 Rocket 3.9 20:30:47 67° ESE 20:30:54 68° E 20:37:05 10° NNE
Cosmos 1606 Rocket 4.3 20:32:06 51° WNW 20:32:06 51° WNW 20:36:27 10° N
Cosmos 2058 Rocket 3.8 20:33:14 50° N 20:33:14 50° N 20:36:34 10° NNE
Cosmos 839 Rocket 3.8 20:27:42 10° NW 20:34:01 89° NE 20:34:38 75° SE
Geosat 4.2 20:34:16 62° NE 20:34:16 62° NE 20:39:11 10° NNW
Cosmos 1331 Rocket 4.0 20:34:42 78° N 20:34:42 78° N 20:39:39 10° NNE
Cosmos 2285 Rocket 4.2 20:28:07 10° NW 20:34:27 61° WSW 20:35:23 55° SSW
NOSS 2-1 (C) 4.1 20:39:57 10° WNW 20:44:05 71° WNW 20:44:05 71° WNW
In-Cosmos 22 Rocket 4.4 20:40:20 10° NNW 20:45:14 59° NE 20:45:14 59° NE
Mayak 0.9 20:42:18 10° NNE 20:43:36 18° NE 20:43:36 18° NE
Cosmos 1339 Rocket 4.4 20:45:32 69° SW 20:46:16 79° WNW 20:52:23 10° NNE
Cosmos 1777 Rocket 4.3 20:41:28 10° NNW 20:46:23 59° NNE 20:46:23 59° NNE
NOSS 2-1 (D) 4.2 20:43:08 10° WNW 20:47:11 68° W 20:47:11 68° W
USA 234 3.1 20:49:56 69° S 20:50:06 69° SSW 20:56:40 10° WNW
Cosmos 2058 4.3 20:51:35 10° NNW 20:54:09 37° N 20:54:09 37° N
Cosmos 2100 Rocket 3.9 20:52:06 10° NNW 20:58:28 76° W 20:58:51 73° SW
SJ 16-02 3.5 20:55:56 10° NNW 20:59:08 19° NE 20:59:35 19° NE
Helios 1A 4.3 21:01:31 40° N 21:01:31 40° N 21:04:19 10° NNW
CZ-2C R/B 3.7 20:55:05 10° N 21:00:19 44° WNW 21:02:35 29° WSW
Cosmos 2227 4.3 21:00:11 73° WNW 21:00:23 74° NW 21:06:07 10° NE
SPOT 5 4.4 21:05:27 28° W 21:05:40 28° W 21:10:05 10° NNW
Cosmos 1953 4.3 21:05:58 25° WNW 21:05:58 25° WNW 21:09:22 10° N
CZ-4C R/B 2.8 21:02:57 10° WNW 21:09:39 65° SW 21:09:50 65° SW
Cosmos 1864 Rocket 4.4 21:05:10 10° NNW 21:11:14 79° NE 21:11:14 79° NE
Cosmos 1725 Rocket 3.9 21:06:09 10° NNW 21:12:15 80° ENE 21:12:15 80° ENE
ALOS 2 3.9 21:15:30 38° N 21:15:30 38° N 21:18:22 10° N
MOS 1 Rocket 4.1 21:10:06 10° N 21:15:01 52° WNW 21:15:01 52° WNW
Cosmos 2173 Rocket 4.2 21:12:33 10° NNW 21:18:52 63° W 21:19:09 62° WSW
Terra 3.4 21:21:13 27° W 21:21:13 27° W 21:24:50 10° NNW
Cosmos 1844 Rocket 4.0 21:28:12 29° ENE 21:28:12 29° ENE 21:31:12 10° NE
Cosmos 1459 Rocket 4.3 21:21:18 10° NNW 21:27:12 55° W 21:27:12 55° W
Cosmos 371 Rocket 4.3 21:35:37 44° NNW 21:35:37 44° NNW 21:39:39 10° NNE
Meteor 2-3 Rocket 4.4 21:29:46 10° N 21:34:46 47° NE 21:34:46 47° NE
Cosmos 2082 Rocket 2.6 21:30:55 10° NW 21:36:22 60° NNE 21:36:22 60° NNE
Cosmos 2227 Rocket 4.2 21:38:08 10° WNW 21:42:52 26° NNW 21:47:38 10° NE
Cosmos 1000 Rocket 4.5 21:45:26 74° NW 21:45:26 74° NW 21:51:23 10° N
Cosmos 1802 Rocket 4.5 21:40:30 10° NNW 21:46:34 50° W 21:46:36 50° W
Cosmos 2233 Rocket 4.0 21:42:28 10° NNW 21:48:13 78° NNW 21:48:13 78° NNW
Cosmos 2297 Rocket 4.3 21:48:37 10° WNW 21:53:16 25° NNW 21:57:55 10° NE
Cosmos 2016 Rocket 4.5 21:50:10 10° NNW 21:55:44 49° W 21:55:44 49° W
Cosmos 1238 Rocket 4.2 21:51:54 10° N 21:55:34 52° N 21:55:34 52° N
ATLAS CENTAUR R/B 3.5 22:01:29 26° NE 22:01:29 26° NE 22:03:37 10° NE
Cosmos 2263 Rocket 2.9 22:00:09 47° WNW 22:00:51 49° NW 22:06:23 10° NE
COSMOS 2406 4.2 22:02:18 10° NW 22:06:16 38° WNW 22:06:16 38° WNW
Cosmos 1833 Rocket 3.3 22:04:01 10° NW 22:08:13 51° NW 22:08:13 51° NW
Cosmos 1844 4.4 22:15:56 46° NE 22:15:56 46° NE 22:20:01 10° NE
Mayak 0.7 22:17:56 10° N 22:20:10 27° NNW 22:20:10 27° NNW
Cosmos 2278 Rocket 3.6 22:26:34 29° ENE 22:26:34 29° ENE 22:29:55 10° NE
Cosmos 1464 Rocket 4.0 22:29:57 10° NNW 22:35:59 80° N 22:35:59 80° N
SJ 16-02 3.1 22:34:10 10° NNW 22:36:33 30° NNW 22:36:33 30° NNW
ATLAS 5 CENTAUR R/B 3.9 22:41:43 19° ENE 22:41:43 19° ENE 22:43:21 10° ENE
Cosmos 1818 4.2 22:39:50 52° NNW 22:39:55 52° NNW 22:45:17 10° ENE
NOSS 3-3 (A) 4.2 22:40:58 10° WNW 22:48:04 85° SW 22:48:26 81° SSE
NOSS 3-3 (C) 4.2 22:41:04 10° WNW 22:48:11 86° SW 22:48:34 81° SSE
Cosmos 1937 Rocket 4.4 22:49:25 10° NNW 22:53:00 44° NNW 22:53:00 44° NNW
Cosmos 2034 Rocket 4.0 22:49:55 10° NNW 22:55:38 77° N 22:55:38 77° N
CZ-4C R/B 4.4 22:51:55 10° WNW 22:54:59 21° W 22:54:59 21° W
SL-16 R/B 3.1 22:57:25 45° E 22:58:36 51° ENE 23:04:38 10° NNW
Cosmos 1844 Rocket 3.1 23:09:51 55° NW 23:09:51 55° NW 23:15:18 10° NE
Cosmos 1607 4.2 23:10:35 56° WNW 23:11:21 61° NNW 23:17:29 10° ENE
H-2A R/B 3.7 23:12:23 31° NNE 23:12:23 31° NNE 23:15:19 10° N
Helios 1B rocket 4.3 23:09:03 10° N 23:11:14 27° NNW 23:11:14 27° NNW
Cosmos 1932 4.5 23:14:16 77° ENE 23:14:16 77° ENE 23:20:16 10° NE
Resurs 1-4 Rocket 3.8 23:09:43 10° NE 23:13:52 23° E 23:14:07 23° E
Meteor 2-20 4.5 23:14:30 74° NNW 23:14:30 74° NNW 23:20:12 10° NNE
SL-24 R/B - RUBIN 2 4.5 23:16:07 61° NNE 23:16:07 61° NNE 23:21:11 10° NE
Cosmos 2221 4.1 23:18:32 33° N 23:18:32 33° N 23:21:01 10° N
Cosmos 2082 Rocket 3.6 23:15:16 10° NW 23:18:11 28° WNW 23:18:11 28° WNW
Cosmos 1125 Rocket 4.2 23:17:00 10° NNW 23:22:14 51° NE 23:22:35 51° ENE
Cosmos 2227 Rocket 4.4 23:24:08 10° NW 23:28:45 24° N 23:33:21 10° ENE
Cosmos 2297 4.5 23:38:08 42° E 23:38:08 42° E 23:43:01 10° NE
ATLAS CENTAUR R/B 3.0 23:37:41 35° NNW 23:38:40 39° N 23:43:01 10° ENE
USA 267 3.2 23:32:28 10° ENE 23:38:36 64° SE 23:38:36 64° SE
Cosmos 2297 Rocket 4.3 23:34:27 10° NW 23:39:08 25° NNE 23:43:48 10° ENE
CENTAUR R/B 4.4 23:39:20 16° ESE 23:40:31 17° ESE 23:44:35 10° ENE
Cosmos 2369 Rocket 4.1 23:41:36 18° ESE 23:42:26 18° E 23:46:11 10° ENE
Meteor 2-10 Rocket 4.3 23:44:58 47° NW 23:44:58 47° NW 23:50:05 10° N
Cosmos 2263 Rocket 4.1 23:41:49 12° WNW 23:46:05 26° NNW 23:50:46 10° NE
